Content
SEND FEEDBACK

Daily
Averages
Monthly
Summary
United States of America

BURLINGTON, NORTH CAROLINA


Home > North America > United States > North Carolina
Elevation: 638 feet     Latitude: 36 02N     Longitude: 079 28W

WEATHER
 
SELECT A DAY
Number of Records: 171,550;   Date Range: 7/1/98 - 8/28/14
 
SHARE

PRINT THIS DATA

[ ← Previous Day ]
WEATHER ALMANAC - FEBRUARY 3, 2014
[ Next Day → ]
[ °C ]   °F
Weather ElementAverageHighLow
Temperature50.8 °F62.1 °F (7:54 am)37.9 °F (10:54 pm)
Dewpoint46 °F55.9 °F (9:00 am)33.1 °F (10:54 pm)
Humidity83.8 %93 % (10:41 am)72 % (4:54 am)
Barometer30.01 in30.27 in (11:54 pm)29.85 in (6:54 am)
Wind Speed9.2 mph13.8 mph (7:54 am)
Wind Gust21.9 mph (4:28 am)
Weather ElementAverage
Visibility8.7 mi
Wind DirectionSE (130.3 °)

Weather ElementTotal
Precipitation0.44 in
Heating Degree Days15 (Base 65)
Averaged from 39 records on February 3, 2014
WEATHER CONDITIONS BREAKOUT
WIND DIRECTION BREAKOUT
WEATHER BY HOUR - FEBRUARY 3, 2014
[ °C ]   °F
Local TimeTemperatureDewpointHumidityBarometerVisibilityWind DirectionWind SpeedGust SpeedPrecipitationEventsConditions
1:54 AM51.1 °F46.9 °F86 %29.95 in8.0 miCalmOvercast
2:54 AM53.1 °F48.9 °F86 %29.92 in10.0 miSSE (150°)4.6 mphMostly Cloudy
3:54 AM55.9 °F48.9 °F77 %29.89 in10.0 miSouth (180°)11.5 mph19.6 mph0.00 inOvercast
4:28 AM57.0 °F48.9 °F74 %29.87 in10.0 miSouth (170°)10.4 mph21.9 mph0.00 inMostly Cloudy
4:54 AM57.9 °F48.9 °F72 %29.86 in10.0 miSouth (180°)12.7 mph21.9 mph0.00 inOvercast
5:54 AM57.9 °F50.0 °F75 %29.86 in10.0 miSouth (170°)8.1 mphOvercast
6:54 AM59.0 °F52.0 °F78 %29.85 in10.0 miSouth (170°)8.1 mphOvercast
7:54 AM62.1 °F54.0 °F75 %29.85 in10.0 miSouth (190°)13.8 mph21.9 mphOvercast
8:54 AM59.0 °F55.0 °F87 %29.93 in2.5 miWSW (250°)13.8 mph21.9 mph0.07 inRainRain
9:00 AM59.0 °F55.9 °F90 %29.94 in1.8 miWSW (250°)11.5 mph20.7 mph0.04 inRainHeavy Rain
9:07 AM59.0 °F55.9 °F90 %29.94 in2.5 miSW (230°)11.5 mph0.04 inRainLight Rain
9:09 AM59.0 °F55.9 °F90 %29.94 in3.0 miSW (220°)11.5 mph0.04 inRainLight Rain
9:25 AM59.0 °F55.9 °F90 %29.95 in9.0 miWest (260°)8.1 mph0.05 inRainLight Rain
9:54 AM59.0 °F55.9 °F90 %29.94 in4.0 miNNW (340°)4.6 mph0.07 inRainLight Rain
9:59 AM59.0 °F55.9 °F90 %29.94 in6.0 miNorth (360°)5.8 mph0.00 inRainLight Rain
10:13 AM57.9 °F54.0 °F87 %29.96 in10.0 miNorth (10°)8.1 mph0.00 inRainLight Rain
10:32 AM54.0 °F51.1 °F90 %29.94 in10.0 miNNE (30°)8.1 mph0.00 inRainLight Rain
10:41 AM53.1 °F51.1 °F93 %29.93 in10.0 miNE (50°)5.8 mph0.00 inOvercast
10:54 AM53.1 °F50.0 °F89 %29.92 in7.0 miENE (60°)6.9 mph0.01 inRainLight Rain
11:54 AM52.0 °F48.9 °F89 %29.97 in10.0 miNNW (330°)8.1 mph0.00 inOvercast
12:24 PM48.9 °F46.0 °F90 %29.97 in10.0 miNNW (340°)13.8 mph20.7 mphOvercast
12:54 PM46.0 °F43.0 °F89 %30.01 in4.0 miNorth (350°)11.5 mph18.4 mph0.04 inRainLight Rain
1:35 PM45.0 °F42.1 °F90 %30.01 in10.0 miNorth (10°)8.1 mph0.04 inOvercast
1:54 PM45.0 °F42.1 °F90 %30.02 in10.0 miNorth (360°)10.4 mph0.04 inOvercast
2:42 PM46.0 °F42.1 °F86 %30.03 in10.0 miNNE (20°)9.2 mphOvercast
2:54 PM46.9 °F41.0 °F80 %30.03 in10.0 miNNE (20°)13.8 mphOvercast
3:03 PM46.9 °F41.0 °F80 %30.04 in10.0 miNorth (10°)8.1 mphOvercast
3:11 PM46.9 °F42.1 °F83 %30.04 in10.0 miNorth (10°)9.2 mphOvercast
3:54 PM46.0 °F41.0 °F83 %30.06 in10.0 miNNE (30°)10.4 mphOvercast
4:19 PM46.9 °F41.0 °F80 %30.08 in10.0 miNNE (20°)10.4 mphOvercast
4:54 PM46.9 °F39.9 °F77 %30.09 in10.0 miNNE (20°)9.2 mphOvercast
5:54 PM46.0 °F39.9 °F79 %30.13 in10.0 miNNE (20°)11.5 mphOvercast
6:54 PM45.0 °F39.0 °F80 %30.17 in10.0 miNNE (30°)8.1 mphOvercast
7:54 PM44.1 °F37.0 °F76 %30.19 in10.0 miNNE (30°)11.5 mphOvercast
8:25 PM42.1 °F36.0 °F79 %30.20 in10.0 miNE (50°)8.1 mph17.3 mphPartly Cloudy
8:54 PM41.0 °F35.1 °F79 %30.22 in10.0 miNE (40°)11.5 mphClear
9:54 PM39.0 °F34.0 °F82 %30.25 in10.0 miNE (50°)8.1 mphPartly Cloudy
10:54 PM37.9 °F33.1 °F83 %30.26 in10.0 miNE (40°)5.8 mphMostly Cloudy
11:54 PM37.9 °F33.1 °F83 %30.27 in10.0 miNNE (30°)6.9 mphOvercast
Hourly data recorded from KBUY, located miles away from Burlington, North Carolina







STORIES FROM OUR PARTNERS